TimeAKST,TemperatureF,Dew PointF,Humidity,Sea Level PressureIn,VisibilityMPH,Wind Direction,Wind SpeedMPH,Gust SpeedMPH,PrecipitationIn,Events,Conditions,WindDirDegrees,DateUTC
12:41 AM,35.6,35.6,100,30.00,10.0,South,4.6,-,0.02,Rain,Light Rain,180,2013-03-02 09:41:00
12:53 AM,35.1,35.1,100,30.01,10.0,SSE,4.6,-,0.03,Rain,Light Rain,150,2013-03-02 09:53:00
1:53 AM,36.0,36.0,100,30.00,10.0,SSE,5.8,-,0.00,Rain,Light Rain,160,2013-03-02 10:53:00
3:53 AM,37.0,37.0,100,29.97,9.0,South,4.6,-,0.02,Rain,Light Rain,180,2013-03-02 12:53:00
4:53 AM,34.0,34.0,100,29.98,4.0,Variable,4.6,-,0.16,Snow,Light Snow,0,2013-03-02 13:53:00
5:02 AM,33.8,33.8,100,29.97,3.0,Calm,Calm,-,0.04,Snow,Light Snow,0,2013-03-02 14:02:00
5:27 AM,33.8,33.8,100,29.97,7.0,Calm,Calm,-,0.08,Snow,Light Snow,0,2013-03-02 14:27:00
5:50 AM,33.8,33.8,100,29.97,10.0,Calm,Calm,-,0.08,Rain,Light Rain,0,2013-03-02 14:50:00
5:53 AM,34.0,34.0,100,29.97,10.0,Calm,Calm,-,0.08,Rain,Light Rain,0,2013-03-02 14:53:00
6:01 AM,33.8,33.8,100,29.96,10.0,Calm,Calm,-,0.00,Rain,Light Rain,0,2013-03-02 15:01:00
6:53 AM,34.0,34.0,100,29.97,3.0,South,3.5,-,0.08,Snow,Light Snow,180,2013-03-02 15:53:00
7:31 AM,33.8,33.8,100,29.97,10.0,South,4.6,-,0.02,Rain,Light Rain,170,2013-03-02 16:31:00
7:32 AM,33.8,33.8,100,29.97,7.0,SSE,4.6,-,0.02,Snow,Light Snow,160,2013-03-02 16:32:00
7:53 AM,34.0,34.0,100,29.98,7.0,SSE,4.6,-,0.03,Snow,Light Snow,160,2013-03-02 16:53:00
8:53 AM,35.1,35.1,100,29.99,10.0,SE,3.5,-,0.02,,Overcast,140,2013-03-02 17:53:00
9:53 AM,36.0,36.0,100,29.99,10.0,Calm,Calm,-,0.01,Rain,Light Rain,0,2013-03-02 18:53:00
10:53 AM,35.1,35.1,100,30.01,10.0,Calm,Calm,-,0.09,Snow,Light Snow,0,2013-03-02 19:53:00
11:53 AM,37.0,36.0,96,30.01,10.0,Calm,Calm,-,0.03,Rain,Light Rain,0,2013-03-02 20:53:00
12:53 PM,37.0,37.0,100,30.02,10.0,South,4.6,-,0.02,Rain,Light Rain,170,2013-03-02 21:53:00
1:53 PM,37.9,37.0,97,30.02,10.0,Calm,Calm,-,0.02,,Overcast,0,2013-03-02 22:53:00
2:53 PM,39.0,37.0,93,30.02,10.0,Calm,Calm,-,0.01,Rain,Light Rain,0,2013-03-02 23:53:00
3:53 PM,37.0,37.0,100,30.04,10.0,Calm,Calm,-,0.01,Rain,Light Rain,0,2013-03-03 00:53:00
4:53 PM,37.0,37.0,100,30.05,10.0,Calm,Calm,-,0.00,,Mostly Cloudy,0,2013-03-03 01:53:00
5:53 PM,36.0,36.0,100,30.06,10.0,Calm,Calm,-,0.02,Rain,Light Rain,0,2013-03-03 02:53:00
6:53 PM,34.0,34.0,100,30.08,10.0,Calm,Calm,-,0.00,,Overcast,0,2013-03-03 03:53:00
7:53 PM,34.0,34.0,100,30.10,10.0,Calm,Calm,-,N/A,,Overcast,0,2013-03-03 04:53:00
8:53 PM,35.1,35.1,100,30.12,10.0,Calm,Calm,-,N/A,,Overcast,0,2013-03-03 05:53:00
9:53 PM,34.0,34.0,100,30.15,10.0,Calm,Calm,-,N/A,,Overcast,0,2013-03-03 06:53:00
10:53 PM,34.0,34.0,100,30.17,10.0,SSE,3.5,-,N/A,,Mostly Cloudy,150,2013-03-03 07:53:00
11:53 PM,34.0,34.0,100,30.19,10.0,Calm,Calm,-,N/A,,Partly Cloudy,0,2013-03-03 08:53:00